GFSCGP_850_temp_021.txt.gz
Temp
15 13 14 15 16 17 19 20 20 21 23 23 23 23 24 26 26 26 27 27 27 28 29 28 28 27 27 27 27 27 26 25 24 23 21 19 19 18 17 17 17 16 16 15
13 13 15 17 18 18 18 18 19 22 23 23 23 23 25 26 25 26 27 27 27 28 27 27 28 28 27 27 26 26 25 24 23 22 20 19 18 17 18 17 16 16 16 15
13 14 17 17 17 18 18 18 19 19 21 22 22 21 22 24 25 26 27 28 28 27 28 28 28 28 27 25 26 25 23 23 22 20 18 18 17 17 17 16 16 16 16 15
13 16 17 17 17 18 17 20 20 21 20 19 21 19 22 23 24 25 26 27 27 28 28 28 28 27 26 25 25 23 21 20 19 18 18 17 17 17 17 16 16 16 15 14
13 15 15 16 17 19 18 20 20 20 20 19 20 19 22 22 22 22 23 26 27 28 28 28 28 27 24 24 23 21 19 18 17 17 17 17 17 17 16 16 16 16 15 14
14 16 16 16 18 19 20 19 19 19 19 17 20 20 21 21 22 23 23 26 28 28 28 27 25 25 23 22 20 18 17 17 16 16 16 17 17 17 16 16 16 15 15 14
14 15 16 17 16 17 18 16 15 15 16 17 20 20 21 21 23 24 24 25 26 28 26 25 23 22 20 19 18 17 16 16 16 16 17 17 16 16 16 16 15 15 14 14
12 11 14 17 16 15 16 17 15 14 16 18 21 19 21 24 24 25 27 27 24 23 22 21 20 20 19 18 17 16 16 16 16 16 16 16 16 16 16 15 15 14 14 14
9 12 15 14 15 17 16 15 18 17 18 18 19 21 23 24 24 23 24 26 22 22 21 20 19 19 17 17 16 15 15 16 16 16 15 15 15 15 15 14 14 14 14 13
11 9 13 14 15 15 16 18 16 17 15 15 19 21 21 23 24 24 23 21 21 21 20 19 19 17 17 16 15 15 15 15 15 15 15 15 15 14 14 14 14 14 13 13
10 9 10 12 12 13 15 16 16 17 17 17 17 19 23 24 24 23 21 22 21 21 20 19 18 17 17 16 16 15 15 15 15 15 15 15 15 15 14 14 13 13 13 13
8 7 8 10 13 14 13 13 16 15 17 18 17 19 23 24 23 22 22 22 21 21 20 19 18 18 17 16 16 16 15 15 15 15 15 15 15 15 14 13 13 13 13 13
7 6 7 10 13 14 13 16 18 17 16 18 18 20 24 23 24 23 22 22 21 21 20 19 18 18 17 17 16 16 16 15 15 15 16 15 15 15 14 13 13 13 13 13
7 6 7 7 10 10 9 10 12 12 16 18 19 21 22 23 23 22 23 22 21 21 20 19 18 18 17 17 16 16 16 16 16 16 16 16 15 14 14 13 13 13 13 14
6 6 7 8 10 10 9 10 10 10 14 18 20 21 23 22 21 22 22 22 21 21 20 19 19 18 18 17 17 17 17 17 16 17 17 16 15 14 13 13 13 13 13 14
5 6 7 8 10 10 10 11 11 11 12 16 21 22 22 22 24 22 23 22 22 21 20 20 20 19 18 18 18 18 17 17 17 17 17 16 15 14 13 13 13 13 14 14
8 6 6 8 10 10 9 11 12 13 13 15 20 22 21 20 20 18 22 23 22 21 21 21 20 20 19 19 18 18 18 17 17 17 17 16 14 14 13 13 13 13 13 14
8 8 7 8 8 8 12 15 15 14 16 19 22 20 20 21 19 19 21 22 23 22 22 21 21 20 20 19 19 18 18 17 17 17 17 15 14 14 14 14 14 14 14 14
9 8 6 8 8 8 10 10 10 11 14 17 18 17 13 18 18 18 19 20 21 22 23 22 21 21 20 19 19 18 18 18 17 17 16 15 15 14 14 14 14 14 13 14
10 9 7 7 8 9 9 9 9 11 13 13 17 16 18 18 15 15 19 20 21 21 22 22 22 21 20 20 19 18 18 18 18 17 16 16 15 15 14 14 14 13 13 13
6 7 7 7 8 7 8 8 8 13 11 13 17 17 17 15 16 19 19 20 21 21 22 22 22 21 20 20 19 18 18 18 18 18 17 16 16 16 15 14 14 13 13 13
6 6 7 8 8 8 5 8 11 9 9 13 17 17 18 19 19 19 20 20 20 21 22 22 21 21 20 20 19 19 18 18 18 18 17 16 16 15 15 14 14 13 13 13
6 6 5 6 6 6 6 6 7 9 10 13 16 17 17 18 18 19 19 20 21 21 22 22 22 21 20 20 19 19 19 19 19 18 18 17 16 16 15 15 13 13 14 13
6 6 4 6 6 6 6 7 7 11 13 14 15 16 17 17 17 18 18 18 19 20 20 21 21 21 20 20 19 19 19 19 19 18 18 17 16 16 15 15 14 14 14 14
6 6 5 6 7 7 7 7 8 11 13 13 14 15 16 16 16 16 17 17 18 19 21 21 21 21 20 20 19 19 19 19 19 18 18 17 17 16 15 15 15 15 15 15
8 7 5 6 7 8 9 8 9 11 13 13 14 15 15 15 15 15 15 16 17 17 20 21 21 21 20 20 19 19 19 19 19 18 18 17 17 16 16 15 15 15 16 16

GFSCGP_850_temp_024.txt.gz
Temp
14 11 12 14 14 15 16 16 17 18 19 20 20 21 22 23 23 22 24 24 25 25 27 28 28 27 27 28 27 27 27 26 26 26 25 22 20 19 18 18 17 16 16 16
12 11 14 15 15 15 15 15 15 17 19 19 20 20 22 23 23 23 24 24 24 26 28 27 27 27 27 28 27 27 27 27 26 25 24 21 19 18 18 17 16 16 16 15
11 12 15 14 14 15 15 15 15 16 18 19 19 19 19 21 21 23 24 25 26 27 27 27 27 28 28 27 27 26 26 26 25 24 22 20 18 18 17 17 16 16 16 15
11 13 13 14 14 15 14 16 17 17 16 16 19 17 19 20 21 21 22 24 26 27 27 27 28 27 27 27 25 25 25 24 22 22 21 19 19 18 18 17 17 16 16 15
12 13 13 13 14 16 14 17 17 17 16 16 17 15 20 19 20 21 21 24 26 27 27 27 28 27 25 25 25 24 22 22 20 19 19 18 18 17 17 17 16 16 16 15
13 14 14 14 15 15 16 16 16 16 14 14 17 16 17 19 20 20 20 24 26 26 27 27 27 26 23 23 23 21 20 19 18 18 17 17 17 16 17 16 16 16 15 15
12 13 14 15 14 14 14 13 12 11 12 14 17 16 18 18 20 21 22 23 25 25 26 26 25 23 21 21 20 20 18 17 17 16 16 16 16 16 16 16 16 15 15 15
10 10 13 15 13 13 12 11 10 11 11 14 18 16 16 20 22 24 24 24 24 25 23 22 20 20 20 19 18 17 17 16 16 16 16 16 16 16 16 15 15 15 15 14
9 11 12 14 14 13 12 12 14 13 15 14 15 17 18 21 21 22 22 21 22 20 19 19 19 19 18 18 17 16 16 16 16 16 16 16 15 15 15 15 15 14 14 13
9 8 11 13 13 13 12 14 13 11 12 12 15 16 17 20 21 21 20 18 18 17 18 18 18 18 18 16 16 16 15 15 16 16 15 15 15 15 15 14 14 14 14 13
8 8 9 11 12 11 11 12 13 12 12 14 13 15 17 18 20 21 18 18 17 18 18 18 18 17 16 16 16 15 15 15 15 15 15 15 14 14 14 14 14 13 13 13
7 6 6 9 11 13 11 11 10 10 12 14 14 16 21 20 20 20 18 18 18 18 18 18 17 16 16 15 15 15 15 15 15 15 15 15 15 15 14 14 13 13 13 13
7 5 5 7 9 11 10 11 10 10 12 14 15 15 21 19 21 19 19 18 17 17 17 17 16 16 15 15 15 15 15 15 15 15 15 15 15 15 14 14 13 13 13 13
6 5 5 4 8 9 8 9 10 9 9 14 15 17 20 20 21 20 18 18 17 17 17 17 16 16 16 16 15 15 15 15 15 15 16 16 15 15 14 13 13 13 13 13
5 5 6 6 7 8 9 9 10 10 10 9 14 15 18 20 20 19 18 18 17 17 16 17 17 16 16 16 15 15 15 15 15 16 16 16 15 14 13 13 13 13 13 13
5 4 6 6 8 9 9 10 10 11 11 11 11 12 16 17 19 19 19 19 18 17 17 17 17 17 16 16 16 16 16 16 16 17 16 16 15 14 13 13 13 13 13 13
4 5 6 6 7 10 8 10 11 12 12 13 12 15 17 17 15 14 19 19 18 18 18 18 18 17 17 17 17 16 16 16 16 16 16 16 14 13 13 13 13 13 13 14
7 5 6 5 6 7 10 10 10 13 15 14 14 15 16 17 16 18 18 20 19 19 19 18 18 18 18 17 17 17 17 17 17 17 16 15 14 14 14 13 13 13 13 13
7 6 6 6 5 9 11 8 8 9 12 12 13 16 15 16 17 15 19 19 20 21 20 20 19 19 18 18 18 18 17 17 17 17 16 15 14 14 14 14 14 14 13 13
8 7 6 7 7 7 8 7 8 9 11 12 11 13 14 15 13 14 17 19 20 20 20 20 20 19 19 18 18 18 17 17 17 17 16 15 15 14 14 14 14 13 13 13
5 7 6 6 5 7 5 5 6 10 11 9 11 12 14 14 14 17 18 19 20 21 21 21 20 20 19 19 18 18 18 17 17 17 17 15 15 15 14 14 13 14 14 13
6 6 7 7 7 8 5 6 10 8 8 8 9 12 14 15 16 17 17 19 20 21 21 21 20 20 19 19 18 18 18 17 17 17 17 16 15 15 15 14 14 13 14 13
6 5 5 5 5 3 4 6 6 7 6 7 8 12 14 13 14 15 17 18 19 19 20 21 21 20 19 19 19 18 18 18 18 17 17 16 16 15 15 15 14 14 13 13
6 4 3 4 6 6 5 6 6 7 6 7 10 13 14 13 14 13 15 17 19 19 19 21 21 20 19 19 19 18 18 18 18 17 17 16 16 16 15 14 14 14 13 13
6 5 5 5 6 6 6 7 6 8 9 8 13 14 14 14 13 13 14 15 16 17 19 19 20 20 20 19 19 18 18 18 18 18 17 17 16 16 15 15 15 14 14 15
6 6 5 6 6 7 7 8 7 8 8 10 13 13 13 13 13 14 13 13 14 15 17 18 19 20 20 19 19 18 18 18 18 18 17 17 16 16 16 15 15 14 14 15

GFSCGP_850_temp_030.txt.gz
Temp
11 9 9 11 12 13 12 13 13 14 16 16 16 17 18 18 19 19 20 21 21 21 22 23 24 25 25 26 27 27 27 27 27 27 27 25 25 25 24 22 20 19 19 18
8 8 11 12 12 12 11 12 11 13 14 15 14 14 15 16 16 18 19 19 20 21 22 23 24 25 25 26 27 27 27 27 27 27 26 25 25 24 23 20 20 19 18 18
7 9 11 12 12 12 11 11 12 12 14 15 14 15 15 16 16 18 19 19 20 20 21 22 24 25 25 25 26 26 26 26 26 25 25 24 23 21 20 20 19 18 17 16
8 9 10 11 11 11 10 13 13 14 13 12 15 12 15 16 16 16 17 19 20 21 22 23 23 24 25 26 26 26 26 26 26 25 24 24 23 22 22 20 19 17 16 16
9 11 11 10 11 12 11 13 12 12 12 12 13 11 16 17 15 16 17 19 20 21 22 23 24 24 25 25 26 26 26 24 25 25 24 22 22 21 20 18 18 16 16 16
9 11 11 10 12 12 13 12 11 12 10 9 12 12 14 15 17 16 16 18 20 21 22 23 23 24 24 25 25 25 24 24 23 22 22 21 20 19 18 18 16 16 15 15
8 9 11 12 11 12 11 9 7 7 8 10 13 12 15 15 15 16 16 18 21 22 22 23 23 24 24 24 23 22 22 21 21 21 19 18 18 18 17 17 16 16 15 15
6 8 10 11 10 10 9 8 7 9 9 11 14 11 13 15 16 18 18 20 21 22 23 23 23 22 22 21 20 20 20 20 19 18 17 17 17 17 16 16 16 16 15 15
7 7 10 9 11 11 10 8 10 10 11 10 10 12 14 17 16 16 17 20 21 22 22 21 21 20 19 18 18 19 19 19 17 17 16 16 16 16 16 16 16 15 14 14
8 7 9 10 10 11 11 11 10 7 10 10 10 12 13 15 16 17 16 15 19 19 19 19 18 18 17 18 18 18 18 18 16 16 16 16 16 16 16 15 15 14 14 14
6 6 8 9 9 9 10 9 10 8 8 10 10 11 12 15 16 15 14 17 16 16 16 15 16 17 17 17 17 17 16 16 16 16 16 16 16 15 15 15 14 14 14 14
6 5 5 7 9 9 9 9 9 8 10 9 8 10 13 15 14 13 14 15 14 13 14 15 16 16 16 16 16 16 15 15 15 15 15 15 15 15 14 14 14 14 13 13
6 4 5 7 8 7 7 9 9 7 7 7 9 11 14 14 13 14 13 15 13 14 14 15 15 16 16 15 15 15 15 15 15 15 15 15 15 14 14 14 13 13 13 13
6 3 4 4 7 6 6 7 7 7 6 9 10 11 14 15 12 14 15 15 13 13 14 14 15 15 15 15 15 15 15 15 15 15 15 15 14 14 14 13 13 13 13 13
4 4 4 5 6 7 6 6 7 7 8 7 9 9 11 11 12 14 15 15 13 13 13 14 14 14 14 14 14 14 15 15 15 15 15 15 14 14 13 13 13 12 13 13
3 4 5 6 6 6 6 7 6 7 7 8 9 9 12 13 14 14 16 15 13 13 14 14 14 14 14 14 14 14 14 15 15 15 15 15 15 14 13 13 12 12 13 13
4 4 4 3 7 7 5 7 7 8 8 9 8 10 12 12 13 13 15 15 14 14 15 14 14 14 15 14 14 14 15 15 15 15 15 15 14 14 13 13 13 13 13 13
4 4 4 3 3 2 7 7 9 9 9 9 10 11 13 12 13 13 15 15 15 14 15 15 15 15 15 15 15 15 15 15 15 14 15 14 14 13 13 13 13 13 13 13
4 5 4 3 4 7 8 7 7 7 8 9 10 11 12 11 12 13 15 15 16 15 16 16 16 15 15 15 15 15 15 15 15 15 15 15 14 13 13 12 12 13 13 13
5 5 4 4 4 5 6 6 5 6 8 10 10 10 10 9 11 13 15 15 16 16 16 17 17 16 16 15 15 15 15 15 15 16 16 15 14 13 13 13 13 13 13 13
5 4 4 5 5 5 5 5 4 8 8 8 8 8 8 9 12 15 15 16 16 16 16 17 17 17 17 16 16 15 15 15 16 16 16 15 14 13 13 13 13 13 13 13
5 5 5 5 5 6 3 3 6 6 7 7 8 8 7 8 12 14 15 16 17 17 17 17 17 17 17 16 16 16 16 16 16 16 16 15 14 14 13 13 13 13 13 13
5 4 4 4 5 3 2 2 3 4 4 7 7 9 10 10 11 13 16 18 19 17 17 17 18 18 17 17 16 16 17 16 16 16 16 15 14 14 14 13 13 13 13 13
3 3 3 3 3 3 3 3 6 6 6 7 8 9 9 9 11 13 14 14 15 18 17 18 18 18 18 17 17 17 17 17 16 16 16 15 15 14 14 13 13 13 13 13
5 5 4 4 4 5 4 5 5 6 6 7 7 8 8 9 10 11 13 15 17 17 17 18 18 19 19 18 18 17 17 17 16 16 16 16 15 15 14 14 13 13 13 13
6 6 5 5 5 5 5 5 5 5 5 6 5 6 7 9 10 11 11 11 15 16 16 17 17 18 19 19 18 18 17 17 17 17 16 16 15 15 14 14 14 14 13 13

GFSCGP_850_temp_033.txt.gz
Temp
11 12 12 13 14 15 15 15 16 17 19 19 19 19 21 21 21 21 21 21 21 21 21 21 23 23 23 24 25 25 26 26 26 26 26 26 26 25 25 24 23 20 19 19
11 11 12 12 13 13 14 14 14 15 16 16 18 18 19 19 20 20 20 20 20 20 20 20 22 23 23 24 25 25 26 26 26 26 26 26 25 26 24 23 21 19 19 18
11 12 13 12 13 13 13 13 14 14 16 17 16 17 18 19 19 19 19 19 19 20 20 20 22 23 23 23 25 25 25 26 26 26 26 26 24 24 22 22 20 19 19 17
11 13 12 12 12 13 12 14 14 14 15 15 17 16 19 19 19 19 19 19 19 19 19 21 22 23 23 24 24 24 25 25 26 26 25 25 24 24 23 21 20 18 17 16
11 11 12 12 13 13 13 14 14 14 14 14 15 15 17 20 19 20 20 20 19 19 20 20 21 22 23 23 24 24 25 25 25 25 24 24 23 22 21 20 18 17 16 16
11 12 12 12 13 13 14 14 14 14 14 13 15 15 18 19 20 21 21 21 20 20 19 21 22 22 23 23 24 24 25 25 25 24 23 22 22 21 20 19 17 16 16 16
10 10 12 12 12 13 13 12 12 11 12 13 16 15 17 19 19 20 20 20 20 20 21 22 22 22 22 23 23 24 24 23 22 22 22 21 20 20 19 18 17 16 16 16
7 7 10 12 12 12 12 12 13 11 13 14 15 14 17 19 20 19 19 19 19 20 20 20 21 22 22 22 22 22 21 21 21 20 19 19 19 18 18 17 16 16 16 16
6 9 11 11 12 13 12 12 14 12 13 15 15 16 18 18 19 20 20 20 20 19 18 19 20 21 21 21 20 20 19 19 19 18 18 18 17 17 16 16 16 16 15 15
8 6 10 9 11 12 12 14 12 13 12 13 15 16 18 18 20 19 20 19 18 17 16 15 16 19 19 18 18 18 18 18 17 17 17 16 16 16 16 16 15 15 15 14
9 8 10 10 10 6 9 10 13 13 14 14 15 17 17 18 17 17 19 18 17 15 14 13 14 16 17 17 17 17 17 17 16 16 16 16 16 16 16 15 15 15 14 14
8 7 8 9 11 11 10 10 11 12 13 14 14 15 17 16 17 17 18 17 17 13 12 13 15 15 15 16 16 16 16 16 16 16 16 16 16 15 15 15 14 14 14 14
8 7 8 10 10 10 10 11 10 10 11 12 13 15 17 17 18 16 17 18 17 13 13 13 14 14 14 15 16 15 15 15 15 16 15 15 15 15 14 14 14 13 13 13
7 7 8 8 9 9 9 10 10 9 11 12 13 14 16 16 16 16 16 17 17 15 13 13 13 14 14 14 14 15 15 15 15 15 15 15 14 14 14 14 13 13 13 13
7 6 8 8 8 8 8 9 9 10 10 10 13 13 14 15 14 16 16 16 17 16 13 13 13 14 14 14 14 14 15 15 15 15 15 14 14 14 14 13 13 13 13 13
5 5 7 6 8 9 8 9 10 10 10 10 11 11 13 13 13 16 16 17 18 17 14 13 13 14 14 14 14 13 14 15 15 15 15 14 14 14 13 13 13 13 13 13
4 5 6 7 8 8 8 10 10 11 11 11 10 12 13 13 14 16 16 15 16 16 15 14 13 14 14 14 13 13 14 15 15 15 15 14 14 13 13 13 12 13 13 13
4 5 6 6 6 5 11 10 10 10 11 12 11 12 13 13 14 14 14 14 15 16 15 14 14 14 13 14 14 14 15 15 14 14 14 14 13 13 12 12 13 13 13 13
4 4 5 6 6 8 9 7 7 7 8 11 12 12 14 13 13 14 15 16 15 16 15 15 14 14 14 14 14 14 14 14 14 14 14 14 14 13 12 13 13 13 13 13
3 5 5 6 6 7 8 7 5 6 8 12 12 12 13 13 12 16 16 15 15 15 15 15 14 14 15 14 14 15 14 14 14 14 14 14 13 13 12 12 13 13 12 13
5 5 5 5 5 7 6 5 4 7 9 7 9 10 11 11 11 13 12 14 15 15 15 15 15 16 15 15 15 14 14 14 14 14 14 14 13 13 13 13 13 13 13 13
5 6 6 5 6 6 3 3 5 6 4 5 5 9 10 10 9 10 12 14 14 14 15 15 15 16 16 15 15 14 15 14 15 15 14 14 13 13 13 13 13 13 13 12
5 4 5 4 5 4 2 0 1 2 2 4 5 8 8 10 11 12 13 14 14 14 15 15 16 17 16 16 15 15 15 15 15 15 15 14 14 13 13 13 13 13 13 12
4 3 3 3 4 4 4 3 5 6 5 7 7 8 9 10 10 11 13 13 15 15 15 17 17 17 17 16 16 16 16 16 16 16 15 15 14 14 13 13 13 13 13 13
6 5 4 4 5 4 5 4 5 5 5 5 6 6 7 9 10 10 11 12 14 15 17 18 18 17 17 17 17 16 16 16 16 16 16 15 15 14 14 13 13 13 13 11
7 5 5 5 5 5 5 5 4 5 5 5 5 6 5 6 8 9 10 13 16 17 18 19 16 17 17 17 17 17 17 17 16 16 16 16 15 14 14 13 13 13 13 12